PEASSS (42015 NORAD) Tracking and Keplerian Element Data

This shows tracking and keplerian element data for the satellite.

Feedback or suggestion? Click here.




ElementValue
Catalog42015
NamePEASSS
Epoch Orbit36382
Epoch Day238.69682262
Epoch Year2023
RAAN302.7793
Inclination97.1985
Eccentricity0.0004082
Argument of Perigee129.6144
Mean Anonmoly230.5475
Mean Motion15.60805406
Decay Rate0.00079865
L11 42015U 17008BV 23238.69682262 .00079865 00000+0 95220-3 0 9992
L22 42015 97.1985 302.7793 0004082 129.6144 230.5475 15.60805406363828



Live tracking and technical data element details for PEASSS (NORAD 42015). PEASSS can be tracked NOW for your location showing map with azimuth and elevation plus other details from your city location.







IsCatalogInMostPopularTable: catalog: 42015, numindb: 384
Update: records affected: 1



GetName: 42015 PEASSS

Hit Count: updated at: Thu, 21 May 2026 10:53:46 GMT